User: anonymous   Login
Location: Narrabri
(30.3170°S, 149.7830°E)
Time: 13:26:46
(UTC+11:00)
Language:

ISS - Orbit

View from above orbital plane
View from above orbital plane
View from above satellite
View from above satellite

Ground track
Ground track

The orbit data is extracted from the following two-line orbital elements,

1 25544U 98067A   17349.23630300  .00016717  00000-0  10270-3 0  9031
2 25544  51.6379 215.7712 0002848 244.7616 115.3242 15.54129556  9909
Epoch (UTC): 15 December 2017 05:40:16
Eccentricity: 0.0002848
inclination: 51.6379°
perigee height: 403 km
apogee height: 406 km
right ascension of ascending node: 215.7712°
argument of perigee: 244.7616°
revolutions per day: 15.54129556
mean anomaly at epoch: 115.3242°
orbit number at epoch: 990

The dashed part of the orbit path shows where the satellite is in the earth's shadow,  

DLR